SV4RJA-13 Weather Reports


Display with metric or nautical units.
time (UTC)temp
F
wind
direction
speed
MPH
gust
MPH
rain 1hr
in
rain 24hr
in
rain mn
in
humidity
%
barometer
mb
20260504032912 46 0.0 0.0 0.00 0.00 0.00 10 1020.4
20260504025912 46 0.0 0.0 0.00 0.00 0.00 10 1020.2
20260504024912 46 0.0 0.0 0.00 0.00 0.00 10 1020.2
20260504023912 46 0.0 0.0 0.00 0.00 0.00 10 1020.3
20260504022912 45 0.0 0.0 0.00 0.00 0.00 10 1020.2
20260504021912 45 0.0 0.0 0.00 0.00 0.00 10 1020.2
20260504020913 45 0.0 0.0 0.00 0.00 0.00 10 1020.2
20260504015912 45 0.0 0.0 0.00 0.00 0.00 10 1020.2
20260504014913 45 0.0 0.0 0.00 0.00 0.00 10 1020.3
20260504013911 45 0.0 0.0 0.00 0.00 0.00 10 1020.3
20260504011913 44 0.0 0.0 0.00 0.00 0.00 10 1020.3
20260504010912 44 0.0 0.0 0.00 0.00 0.00 10 1020.3
20260504005913 44 0.0 0.0 0.00 0.00 0.00 10 1020.1
20260504004913 45 0.0 0.0 0.00 0.00 0.00 10 1020.1
20260504003912 44 0.0 0.0 0.00 0.00 0.00 10 1020.2
20260504002912 44 0.0 0.0 0.00 0.00 0.00 10 1020.2
20260504001911 45 0.0 0.0 0.00 0.00 0.00 10 1020.3
20260503235912 47 0.0 0.0 0.00 0.00 0.00 10 1020.2
20260503234913 46 0.0 0.0 0.00 0.00 0.00 10 1020.1
20260503233912 46 0.0 0.0 0.00 0.00 0.00 10 1020.2
20260503231913 46 0.0 0.0 0.00 0.00 0.00 10 1020.3
20260503230913 46 0.0 0.0 0.00 0.00 0.00 10 1020.3
20260503225911 46 0.0 0.0 0.00 0.00 0.00 10 1020.4
20260503223912 47 0.0 0.0 0.00 0.00 0.00 10 1020.4
20260503222912 47 0.0 0.0 0.00 0.00 0.00 10 1020.2
20260503221913 47 0.0 0.0 0.00 0.00 0.00 10 1020.3
20260503220912 47 0.0 0.0 0.00 0.00 0.00 10 1020.3
20260503215913 47 0.0 0.0 0.00 0.00 0.00 10 1020.4
20260503214912 48 0.0 0.0 0.00 0.00 0.00 10 1020.3
20260503213911 47 0.0 0.0 0.00 0.00 0.00 10 1020.4
20260503211913 48 0.0 0.0 0.00 0.00 0.00 10 1020.5
20260503210912 48 0.0 0.0 0.00 0.00 0.00 10 1020.5
20260503204912 47 0.0 0.0 0.00 0.00 0.00 10 1020.5
20260503203913 48 0.0 0.0 0.00 0.00 0.00 10 1020.5
20260503202913 49 0.0 0.0 0.00 0.00 0.00 10 1020.4
20260503201912 49 0.0 0.0 0.00 0.00 0.00 10 1020.6
20260503195913 49 0.0 0.0 0.00 0.00 0.00 10 1020.7
20260503194912 50 0.0 0.0 0.00 0.00 0.00 10 1020.7
20260503193913 49 0.0 0.0 0.00 0.00 0.00 10 1020.7
20260503192912 50 0.0 0.0 0.00 0.00 0.00 10 1020.8
20260503191911 50 0.0 0.0 0.00 0.00 0.00 10 1020.8
20260503190912 50 0.0 0.0 0.00 0.00 0.00 97 1020.8
20260503185912 51 0.0 0.0 0.00 0.00 0.00 89 1020.7
20260503184911 54 0.0 0.0 0.00 0.00 0.00 75 1020.2
20260503183912 53 0.0 0.0 0.00 0.00 0.00 72 1020.5
20260503182911 54 0.0 0.0 0.00 0.00 0.00 72 1020.4
20260503180913 56 0.0 0.0 0.00 0.00 0.00 62 1020.2
20260503175913 56 0.0 0.0 0.00 0.00 0.00 68 1020.2
20260503174912 56 0.0 0.0 0.00 0.00 0.00 62 1020.1
20260503173912 57 0.0 0.0 0.00 0.00 0.00 59 1019.9
20260503171912 58 0.0 0.0 0.00 0.00 0.00 59 1019.5
20260503170912 58 0.0 0.0 0.00 0.00 0.00 57 1019.3
20260503150913 61 0.0 0.0 0.00 0.00 0.00 42 1019.4
20260503130913 62 0.0 0.0 0.00 0.00 0.00 45 1019.5
20260503072913 45 0.0 0.0 0.00 0.00 0.00 10 1020.8
20260503071913 45 0.0 0.0 0.00 0.00 0.00 10 1020.7
20260503070913 45 0.0 0.0 0.00 0.00 0.00 10 1020.7
20260503054912 51 0.0 0.0 0.00 0.00 0.00 10 1019.1
20260503053913 51 0.0 0.0 0.00 0.00 0.00 10 1019.0
20260503052912 51 0.0 0.0 0.00 0.00 0.00 10 1018.9
20260503051912 51 0.0 0.0 0.00 0.00 0.00 10 1018.8
20260503050912 51 0.0 0.0 0.00 0.00 0.00 10 1018.8
20260503045913 50 0.0 0.0 0.00 0.00 0.00 10 1018.7
20260503044913 51 0.0 0.0 0.00 0.00 0.00 10 1018.7
20260503043912 51 0.0 0.0 0.00 0.00 0.00 10 1018.9
20260503042912 49 0.0 0.0 0.00 0.00 0.00 10 1018.9
20260503041913 48 0.0 0.0 0.00 0.00 0.00 10 1018.7
20260503040912 48 0.0 0.0 0.00 0.00 0.00 10 1018.7
20260503034913 48 0.0 0.0 0.00 0.00 0.00 10 1018.9
20260503033913 50 0.0 0.0 0.00 0.00 0.00 10 1018.6